sat.trackr.live / text

‹ back to catalog

GPS BIIF-5 (PRN 30)

NORAD 39533 · 2014-008A

PAYLOAD ACTIVE UNKNOWN

§ Identity

Operator
Country
US
Launch date
2014-02-21
Launch site
AFETR
Launch vehicle
Mass (kg)
RCS (m²)
19.94

Purposes: earth_obs, nav

External: N2YO · Heavens-Above · Gunter

§ Orbital elements

Epoch: 2026-09-12T22:25:58.641600Z

Period
717.97 min
Inclination
53.6624°
Eccentricity
0.0083581
Mean motion
2.00565510 rev/d
Perigee alt
19,960.0 km
Apogee alt
20,404.0 km
Semi-major
26,560.2 km
B*
0.0000e+0
RAAN
145.7386°
Arg perigee
231.5636°
Mean anomaly
127.7576°
Rev number
9,144

§ Raw data

GPS BIIF-5  (PRN 30)1 39533U 14008A   26255.93470650  .00000012  00000+0  00000+0 0  99912 39533  53.6624 145.7386 0083581 231.5636 127.7576  2.00565510 91443

JSON: /api/v1/satellites/39533 · /tle

For live sub-satellite position, see the globe view (requires WebGL).

§ Visibility from observer

Set your observer location to see the next 7 days of passes ≥ 10°. The values pass through the URL so the page stays shareable.

No JS? Fill the form by hand. The geolocation button needs JavaScript.